Regional Weather Roundup
Issued by NWS

Home | Current Version | Previous Version | Text Only | Print | Product List | Glossary On
Versions: 1 2 3 4 5 6 7 8 9 10 11 12 13 14 15 16 17 18 19 20 21 22 23 24 25 26 27 28 29 30 31 32 33 34 35 36 37 38 39 40 41 42 43 44 45 46 47 48 49 50
000
ASUS43 KDMX 241606
RWRIA

WEATHER ROUNDUP FOR IOWA
NATIONAL WEATHER SERVICE DES MOINES IA
1100 AM CDT WED MAY 24 2017

NOTE: "FAIR" INDICATES FEW OR NO CLOUDS BELOW 12,000 FEET WITH NO
SIGNIFICANT WEATHER AND/OR OBSTRUCTIONS TO VISIBILITY.

* - THESE STATIONS ARE NOT NWS STATIONS...THUS NOT UNDER NWS
QUALITY CONTROL.  THEY ALSO DO NOT REPORT WEATHER SUCH
AS PRECIPITATION OR FOG.

IAZ001>003-012>014-020>022-031>034-043>046-241700-
   NORTHWEST IOWA

CITY           SKY/WX    TMP DP  RH WIND       PRES   REMARKS
CARROLL *      CLOUDY    57  52  82 N13       29.73S
CHEROKEE *       N/A     56  50  80 N7        29.76F
DENISON *      CLOUDY    55  48  76 N12       29.76F
LE MARS *      CLOUDY    54  48  82 N9G15     29.79F
ORANGE CITY *  PTSUNNY   54  48  82 N8        29.78F
SHELDON *      PTSUNNY   54  46  76 N7G15       N/A
SIOUX CITY       N/A     59  50  72 N10       29.78F
SPENCER          N/A     56  47  71 N9        29.76F
STORM LAKE *     N/A     54  46  76 N13       29.75F
$$

IAZ055>058-069>071-079>083-090>094-241700-
   SOUTHWEST IOWA

CITY           SKY/WX    TMP DP  RH WIND       PRES   REMARKS
ATLANTIC *     CLOUDY    55  48  76 N14       29.73S
AUDUBON *      PTSUNNY   55  50  82 N14       29.74S
CLARINDA *     PTSUNNY   59  48  67 N20       29.74S
COUNCIL BLFS *   N/A     57  50  77 N10       29.75S
CRESTON *      CLOUDY    54  50  87 N12G17    29.72S
HARLAN  *      PTSUNNY   55  48  76 N13       29.77F
LAMONI         CLOUDY    54  51  90 N13G23    29.68F
RED OAK *      CLOUDY    59  48  67 N15G22    29.73F
SHENANDOAH *   PTSUNNY   59  48  67 N15G22    29.74S
$$

IAZ047>049-059>061-072>074-084-241700-
   CENTRAL IOWA

CITY           SKY/WX    TMP DP  RH WIND       PRES   REMARKS
AMES           CLOUDY    54  49  83 N13       29.70F
ANKENY *       CLOUDY    54  50  87 N14G20    29.71S
BOONE *        CLOUDY    54  52  94 N13       29.70F
CHARITON *     CLOUDY    55  50  82 N12       29.67F
DES MOINES     CLOUDY    55  49  80 N9        29.69S
GRINNELL*      CLOUDY    55  51  87 N13       29.68S
KNOXVILLE *    CLOUDY    54  50  87 N9        29.67S
MARSHALLTOWN   CLOUDY    54  50  86 NE16      29.68S
NEWTON *       CLOUDY    55  50  82 N13       29.67F
PELLA *        CLOUDY    55  51  87 N7        29.68F
PERRY *        CLOUDY    55  51  85 N10       29.72S
$$

IAZ004>006-015-016-023>025-035-036-241700-
   NORTH CENTRAL IOWA

CITY           SKY/WX    TMP DP  RH WIND       PRES   REMARKS
ALGONA *       PTSUNNY   52  50  93 N8G16     29.75F
CLARION *      CLOUDY    55  52  88 N12G18    29.72S
ESTHERVILLE    CLOUDY    52  47  83 N10       29.75F
FORT DODGE *   CLOUDY    55  48  76 N9        29.74S
MASON CITY     CLOUDY    53  48  83 N13       29.74S
FOREST CITY *  CLOUDY    54  45  71 N12       29.74S
WEBSTER CITY * CLOUDY    54  48  82 NE10G16   29.70S
IOWA FALLS *   CLOUDY    54  49  83 N10G16    29.72S
$$

IAZ007>011-017>019-026>030-037>042-050>054-066-241700-
   NORTHEAST IOWA

CITY           SKY/WX    TMP DP  RH WIND       PRES   REMARKS
CEDAR RAPIDS   CLOUDY    55  52  89 NE13      29.64F
CHARLES CITY * CLOUDY    54  50  87 N14       29.71S
CLINTON *      CLOUDY    58  53  84 N13       29.62F
DECORAH *      CLOUDY    52  48  87 N9        29.69S
DUBUQUE        CLOUDY    54  49  83 N9        29.64F
MONTICELLO *   CLOUDY    55  50  82 NE10      29.64F
OELWEIN *      CLOUDY    54  50  87 N14       29.68F
WATERLOO       CLOUDY    54  48  80 N12       29.68F
$$

IAZ064-065-067-068-078-241700-
   EAST CENTRAL IOWA

CITY           SKY/WX    TMP DP  RH WIND       PRES   REMARKS
DAVENPORT      CLOUDY    57  50  77 N15       29.62S
IOWA CITY      PTSUNNY   59  52  77 N13       29.65S
MT. PLEASANT * CLOUDY    57  50  76 N10       29.63S
MUSCATINE *    CLOUDY    61  50  67 NE6       29.62F
QUAD CITIES    CLOUDY    59  49  69 N12G20    29.60S
$$

IAZ062-063-075>077-085>089-095>099-241700-
   SOUTHEAST IOWA

CITY           SKY/WX    TMP DP  RH WIND       PRES   REMARKS
BURLINGTON     CLOUDY    56  52  86 N9        29.62S
FAIRFIELD *    CLOUDY    57  52  82 N12       29.63F
FORT MADISON * PTSUNNY   57  52  82 N7        29.63S
KEOKUK *       PTSUNNY   59  52  77 N8G16     29.61S
OSKALOOSA *    CLOUDY    55  51  86 N13       29.65F
CENTERVILLE *    N/A     59  50  72 N5        29.66F
OTTUMWA        CLOUDY    58  51  78 N12       29.64F
WASHINGTON *   CLOUDY    59  54  82 NE13      29.64F
$$

ABBREVIATIONS USED IN REMARKS
   TC - TEMPERATURES IN CELSIUS
  WCI - WIND CHILL INDEX
   HX - HEAT INDEX
  VSB - VISIBILITY
$$





USA.gov is the U.S. government's official web portal to all federal, state and local government web resources and services.